Location: Davidschlag
(48.4333°N, 14.2833°E)
Time: 23:04:23
(UTC+00:00)

STARLINK-57 - Pass Details

Date: 27 February 2020
Orbit: 529 x 530 km, 53.0° (Epoch: 05 April)

Event Time Altitude Azimuth Distance (km) Brightness Sun altitude
Rises 17:14:05 0° 270° (W) 2,668 9.8 -6.0°
Reaches altitude 10° 17:16:22 10° 276° (W) 1,779 7.9 -6.4°
Maximum altitude 17:20:16 46° 351° (N) 721 4.3 -7.0°
Drops below altitude 10° 17:24:11 10° 66° (ENE) 1,784 5.6 -7.6°
Enters shadow 17:24:28 - 67° (ENE) 1,893 5.8 -7.7°
